CZ-6A DEB

Satellite information

Favourite Embed

Satellite Type and Status

DEBRISIN ORBIT

Key statistics

Satellite CZ-6A DEB at a glance.

Uptime

495

Days in orbit

Revolutions

≈ 14.2

Per day

Orbit

LEO

Low Earth Orbit

Inclination

89.1

Latest

Satellite identification and parameters

Extended collection of information and parameters for CZ-6A DEB.

Object identification

Identified? True

Debris? True

Object name: CZ-6A DEB

International designator: 2024-140EG

Object number (NORAD): 60757

Object ID (CCSDS): 60757

Country: PEOPLES REPUBLIC OF CHINA (PRC)

Current information (Y/N): Y

RCS size: SMALL

Orbital parameters

Period: 101.715 minutes

Inclination: 89.1012 deg

SMA: 7217.982 km

Apoapsis: 886.437 km

Periapsis: 793.256 km

RAAN: 301.7743 deg

Eccentricy: 0.00645482

Argument of periapsis: 87.6381 deg

Mean anomaly: 273.2195 deg

Mean motion: 14.15725658 rev/day

Mean motion (dot): 0.00000463 rev/day2

B* drag term: 0.00022435174 1/REarth

Two-line elements (TLE)

Creation date: Dec. 14, 2025, 3:07 a.m.

Reference frame: TEME

Reference center: EARTH

Epoch: Dec. 13, 2025, 2:10 p.m. UTC

TLE line 0: 0 CZ-6A DEB

TLE line 1: 1 60757U 24140EG 25347.59049374 .00000463 00000-0 22435-3 0 9990

TLE line 2: 2 60757 89.1012 301.7743 0064548 87.6381 273.2195 14.15725658 69719

Live tracking on map

Real-time ground track for satellite CZ-6A DEB.

In-orbit conjunctions

A list of the most updated potential collisions computed for object CZ-6A DEB.

Target Orbit TCA Probability of collision Miss distance Type
FENGYUN 1C DEB SSO 2025-05-28 05:36:47 0.0001222637 62.0 (m) DEBRIS
DODECAPOLE 2 SSO 2025-05-06 11:21:26 0.0005669549 806.0 (m) PAYLOAD
FENGYUN 1C DEB SSO 2025-02-13 22:18:57 0.001213738 357.0 (m) DEBRIS
CZ-6A DEB LEO 2025-01-03 01:58:20 0.0001352172 727.0 (m) DEBRIS
FENGYUN 1C DEB SSO 2024-12-16 06:22:45 0.000365296 816.0 (m) DEBRIS

Associated space launch

18 Low Earth Orbit communication satellites with Ku, Q and V band payloads for the G60 constellation operated by Shanghai Spacecom Satellite Technology (SSST) with funding backed by the Shanghai local government. Initial constellation will consist of 1296 satellites by 2027 with long term plans to expand it to 12000 satellites.

CZ-6A DEB was lifted into orbit during the mission ‘Long March 6A | G60 Polar Group 01’, on board a Long March 6A space rocket.

The launch took place on Aug. 6, 2024, 6:42 a.m. from Launch Complex 9A.

For more information about the launch, click the button.

Launch to space Long March 6A | G60 Polar Group 01
Long March 6A | G60 Polar Group 01

Agency: N/A

Status: Launch Successful

Launch date: Aug. 6, 2024, 6:42 a.m. UTC

Rocket: Long March 6A

Launch pad: Launch Complex 9A

Location: Taiyuan Satellite Launch Center, People's Republic of China

...

Latest news about this satellite

News about space launch
Brightness of first Chinese broadband constellation satellites alarms astronomers

The first satellites of a Chinese broadband constellation are significantly brighter than those of Western systems, posing a new challenge for astronomers.

News about space launch
Chinese rocket stage breaks up into cloud of more than 700 pieces of space debris

HELSINKI — A Chinese Long March 6A rocket’s upper stage has fragmented into a cloud of over 700 pieces of space debris, adding to concerns about long-term orbital safety. China […]

News about space launch
China's Thousand Sails Megaconstellation Kicks Off with Dangerous Debris Field

China's Thousand Sails Megaconstellation Kicks Off with Dangerous Debris Field


Newsletter sign-up

Weekly statistics, charts and insights to help you stay on top of the space industry.